Location: *
(60.1759°S, 155.0663°W)
Time: 12:10:58
(UTC+00:00)

GEOS 3 Rocket - Pass Details

Date: 17 September 2019
Orbit: 790 x 830 km, 115.0° (Epoch: 20 October)

Event Time Altitude Azimuth Distance (km) Brightness Sun altitude
Rises 14:03:25 0° 85° (E) 3,397 7.8 -17.7°
Reaches altitude 10° 14:05:46 10° 89° (E) 2,463 7.0 -17.4°
Maximum altitude 14:11:01 59° 166° (SSE) 972 4.2 -16.8°
Drops below altitude 10° 14:16:15 10° 244° (WSW) 2,452 5.8 -16.2°
Enters shadow 14:16:16 10° 244° (WSW) 2,456 5.8 -16.2°
